Regional Weather Roundup
Issued by NWS

Home | Current Version | Previous Version | Graphics & Text | Print | Product List | Glossary On
Versions: 1 2 3 4 5 6 7 8 9 10 11 12 13 14 15 16 17 18 19 20 21 22 23 24 25 26 27 28 29 30 31 32 33 34 35 36 37 38 39 40 41 42 43 44 45 46 47 48 49 50
593
ASUS45 KPSR 022310
RWRAZ

ARIZONA HOURLY REGIONAL WEATHER ROUNDUP
NATIONAL WEATHER SERVICE PHOENIX AZ
400 PM MST FRI DEC 02 2016

NOTE: FAIR INDICATES FEW OR NO CLOUDS BELOW 12,000 FEET WITH NO
SIGNIFICANT WEATHER AND/OR OBSTRUCTIONS TO VISIBILITY.

AZZ001>003-036-030000-
NORTHWEST ARIZONA

CITY           SKY/WX    TMP DP  RH WIND       PRES   REMARKS
BULLHEAD CITY  CLOUDY    59  19  21 N33G39    29.99S
KINGMAN        SUNNY     49  13  23 N28G35    30.00R
$$

AZZ004>008-015-016-018-030000-
NORTH CENTRAL ARIZONA

CITY           SKY/WX    TMP DP  RH WIND       PRES   REMARKS
GRAND CANYON   PTSUNNY   34  18  52 NE8       30.00R WCI  27
PRESCOTT       PTSUNNY   42  25  50 CALM      29.95R
FLAGSTAFF      CLOUDY    30  21  69 E9        29.96R WCI  22
PAYSON         PTSUNNY   45  18  33 VRB3      29.95R
PAGE           SUNNY     46  13  26 NE8       30.03R
$$

AZZ009>014-017-030000-
NORTHEAST ARIZONA

CITY           SKY/WX    TMP DP  RH WIND       PRES   REMARKS
WINSLOW        MOSUNNY   45  19  35 N9        29.96S
SAINT JOHNS    MOSUNNY   45  13  27 NW9       29.92R
WINDOW ROCK    MOSUNNY   41  17  38 E9        29.95R
SHOW LOW       PTSUNNY   37  16  41 N8        29.95R WCI  31
$$

AZZ023-030000-
GREATER PHOENIX AREA

CITY           SKY/WX    TMP DP  RH WIND       PRES   REMARKS
PHOENIX        PTSUNNY   61  26  26 W9        29.89S
BUCKEYE        PTSUNNY   59  25  27 S7        29.92F
GLENDALE       PTSUNNY   61  28  29 CALM      29.93R
LUKE AFB       MOSUNNY   61  26  26 CALM      29.90S
DEER VALLEY    CLOUDY    58  26  29 W9        29.90R
SCOTTSDALE     CLOUDY    59  22  24 VRB3      29.92R
MESA-FALCON    PTSUNNY  N/A N/A N/A W7        29.88S
CHANDLER       MOSUNNY   61  23  23 NW6       29.91R
$$

AZZ027-028-030000-
SOUTHWEST MARICOPA COUNTY AND PINAL COUNTY

CITY           SKY/WX    TMP DP  RH WIND       PRES   REMARKS
CASA GRANDE    NOT AVBL
GILA BEND      MOSUNNY   59  23  25 N3        29.90R
$$

AZZ503-504-507>509-030000-
SOUTHEAST ARIZONA

CITY           SKY/WX    TMP DP  RH WIND       PRES   REMARKS
TUCSON         CLOUDY    55  17  22 NW15G24   29.89R
DAVIS-MONTHAN  CLOUDY    55  18  23 NW21G26   29.86R
NOGALES        CLOUDY    54  27  35 SW12      29.85S
SIERRA VISTA   CLOUDY    53  23  31 SW12      29.87R
DOUGLAS        CLOUDY    55  28  35 S12       29.86S
SAFFORD        SUNNY     60  12  15 E8        29.84F
$$

AZZ020-021-025-026-031-030000-
SOUTHWEST ARIZONA

CITY           SKY/WX    TMP DP  RH WIND       PRES   REMARKS
YUMA           MOSUNNY   66  22  18 N23G30    29.93R
$$

CAZ031-033-041-043-047-048-061-030000-
SOUTHERN CALIFORNIA

CITY           SKY/WX    TMP DP  RH WIND       PRES   REMARKS
DOWNTOWN L.A.  SUNNY     63  11  13 N10G24    29.98S
L.A. AIRPORT   SUNNY     65  10  11 N18G31    29.98R
SAN DIEGO      MOSUNNY   67  31  26 W12       29.94S
BURBANK        SUNNY     60   6  11 N24G32    30.02R
ONTARIO        SUNNY     60   9  13 NE21G36   29.98S
RIVERSIDE      SUNNY     61  13  15 NE15G35   30.01R
PALM SPRINGS   SUNNY     63  11  13 N23G32    30.03S
EL CENTRO NAS  SUNNY     66  18  15 N16       29.98S
IMPERIAL       LGT RAIN  66  19  16 N16       29.95S
BLYTHE         SUNNY     64  20  18 N23G31    29.95S
NEEDLES        MOSUNNY   62  18  18 N28G39    30.00S
$$

NVZ020-UTZ003-030000-
SOUTHERN NEVADA-UTAH

CITY           SKY/WX    TMP DP  RH WIND       PRES   REMARKS
LAS VEGAS      MOSUNNY   54  12  18 N13G24    30.09R
SALT LAKE CITY PTCLDY    36  22  56 NW12      30.24R WCI  28
$$

NMZ009-TXZ055-030000-
NEW MEXICO-WEST TEXAS

CITY           SKY/WX    TMP DP  RH WIND       PRES   REMARKS
ALBUQUERQUE    CLOUDY    45  18  34 E23       29.97R
EL PASO        PTSUNNY   62  26  25 E7        29.86F
$$


........................KEY........................
SKY/WX - SKY CONDITION/WEATHER
TMP    - TEMPERATURE IN FAHRENHEIT
DP     - DEW POINT IN FAHRENHEIT
RH     - RELATIVE HUMIDITY IN PERCENT
WIND   - DIRECTION AND SPEED IN MILES PER HOUR (MPH)
VRB    - VARIABLE WIND DIRECTION
PRES   - MEAN SEA LEVEL PRESSURE IN INCHES OF MERCURY
         F - FALLING PRESSURE   R - RISING PRESSURE
         S - STEADY PRESSURE
VSB    - VISIBILITY IN MILES
HX     - HEAT INDEX IN FAHRENHEIT
WCI    - WIND CHILL INDEX IN FAHRENHEIT
TC     - TEMPERATURE IN CELSIUS WHICH IS ALSO KNOWN AS
         TEMPERATURE IN CENTIGRADE
AFB    - AIR FORCE BASE
         LUKE AFB IS LUKE AIR FORCE BASE
         DAVIS-MONTHAN IS DAVIS-MONTHAN AIR FORCE BASE
NAS    - NAVAL AIR STATION
         EL CENTRO NAS IS EL CENTRO NAVAL AIR STATION
N/A    - NOT AVAILABLE





USA.gov is the U.S. government's official web portal to all federal, state and local government web resources and services.